W4IFI Weather Reports


Display with metric or nautical units.
time (UTC)temp
F
wind
direction
speed
MPH
gust
MPH
rain 1hr
in
rain 24hr
in
rain mn
in
humidity
%
barometer
mb
20260505022503 52 314 4.0 8.0 0.00 0.00 0.00 33 1011.3
20260505022003 53 287 4.0 8.0 0.00 0.00 0.00 32 1011.3
20260505021717 53 277 4.0 6.0 0.00 0.00 0.00 31 1011.2
20260505021003 54 275 3.0 6.0 0.00 0.00 0.00 30 1011.1
20260505020717 54 275 4.0 6.0 0.00 0.00 0.00 30 1011.2
20260505020003 54 270 5.0 8.0 0.00 0.00 0.00 30 1011.2
20260505015503 54 269 7.0 10.0 0.00 0.00 0.00 29 1011.2
20260505015003 55 270 8.0 11.0 0.00 0.00 0.00 29 1010.9
20260505014503 55 265 8.0 12.0 0.00 0.00 0.00 29 1011.2
20260505014003 55 259 9.0 12.0 0.00 0.00 0.00 29 1011.3
20260505013503 55 257 9.0 12.0 0.00 0.00 0.00 29 1011.2
20260505013003 56 257 9.0 12.0 0.00 0.00 0.00 29 1011.2
20260505012503 56 256 8.0 13.0 0.00 0.00 0.00 28 1011.1
20260505012003 56 251 8.0 13.0 0.00 0.00 0.00 28 1011.2
20260505011503 56 250 9.0 12.0 0.00 0.00 0.00 29 1011.2
20260505011003 56 252 9.0 13.0 0.00 0.00 0.00 28 1011.3
20260505010503 57 254 9.0 14.0 0.00 0.00 0.00 28 1011.3
20260505010003 57 259 9.0 14.0 0.00 0.00 0.00 28 1011.4
20260505005503 57 268 10.0 15.0 0.00 0.00 0.00 28 1011.4
20260505005003 57 272 10.0 15.0 0.00 0.00 0.00 27 1011.3
20260505004503 57 270 9.0 13.0 0.00 0.00 0.00 27 1011.3
20260505004003 57 260 9.0 12.0 0.00 0.00 0.00 27 1011.3
20260505003503 57 260 10.0 14.0 0.00 0.00 0.00 26 1011.3
20260505003218 57 268 10.0 14.0 0.00 0.00 0.00 26 1011.4
20260505002503 57 264 10.0 14.0 0.00 0.00 0.00 26 1011.5
20260505002003 58 255 10.0 14.0 0.00 0.00 0.00 25 1011.6
20260505001503 58 251 10.0 14.0 0.00 0.00 0.00 25 1011.6
20260505001003 58 261 10.0 14.0 0.00 0.00 0.00 25 1011.5
20260505000503 58 260 11.0 16.0 0.00 0.00 0.00 25 1011.6
20260505000003 58 249 12.0 18.0 0.00 0.00 0.00 25 1011.7
20260504235503 58 248 12.0 18.0 0.00 0.00 0.00 25 1011.8
20260504235003 58 256 12.0 18.0 0.00 0.00 0.00 25 1011.7
20260504234503 58 261 12.0 17.0 0.00 0.00 0.00 24 1011.9
20260504234003 58 258 12.0 18.0 0.00 0.00 0.00 24 1012.0
20260504233716 58 255 13.0 23.0 0.00 0.00 0.00 24 1012.0
20260504233003 58 256 14.0 23.0 0.00 0.00 0.00 24 1012.0
20260504232503 58 264 13.0 24.0 0.00 0.00 0.00 23 1012.0
20260504232004 58 260 14.0 24.0 0.00 0.00 0.00 23 1012.1
20260504231503 59 258 15.0 21.0 0.00 0.00 0.00 22 1012.1
20260504231003 59 266 15.0 20.0 0.00 0.00 0.00 21 1012.2
20260504230503 59 275 15.0 22.0 0.00 0.00 0.00 22 1012.2
20260504230003 58 274 15.0 22.0 0.00 0.00 0.00 22 1012.2
20260504225503 59 262 14.0 20.0 0.00 0.00 0.00 22 1012.2
20260504225003 58 252 14.0 19.0 0.00 0.00 0.00 23 1012.2
20260504224718 58 252 15.0 19.0 0.00 0.00 0.00 25 1012.2
20260504224217 58 262 15.0 23.0 0.00 0.00 0.00 25 1012.2
20260504223503 58 252 15.0 21.0 0.00 0.00 0.00 23 1012.1
20260504223217 58 241 14.0 21.0 0.00 0.00 0.00 23 1012.1
20260504222503 58 250 13.0 22.0 0.00 0.00 0.00 23 1012.1
20260504222003 58 251 15.0 21.0 0.00 0.00 0.00 26 1012.2
20260504221503 58 248 16.0 25.0 0.00 0.00 0.00 25 1012.4
20260504221003 58 237 16.0 25.0 0.00 0.00 0.00 26 1012.4
20260504220503 58 232 15.0 22.0 0.00 0.00 0.00 23 1012.4
20260504220003 58 242 14.0 23.0 0.00 0.00 0.00 26 1012.3
20260504215503 58 252 13.0 23.0 0.00 0.00 0.00 28 1012.4
20260504215003 58 261 10.0 20.0 0.00 0.00 0.00 30 1012.5
20260504214718 58 267 11.0 20.0 0.00 0.00 0.00 29 1012.5
20260504214003 58 269 15.0 20.0 0.00 0.00 0.00 31 1012.5
20260504213503 58 247 16.0 25.0 0.00 0.00 0.00 31 1012.6
20260504213003 58 235 16.0 25.0 0.00 0.00 0.00 29 1012.8
20260504212718 59 235 15.0 25.0 0.00 0.00 0.00 28 1012.8
20260504212003 58 228 12.0 22.0 0.00 0.00 0.00 32 1012.9
20260504211503 58 221 12.0 21.0 0.00 0.00 0.00 34 1012.9
20260504211003 58 236 13.0 21.0 0.00 0.00 0.00 33 1013.1
20260504210503 57 246 13.0 21.0 0.00 0.00 0.00 34 1013.0
20260504210003 58 230 12.0 21.0 0.00 0.00 0.00 35 1013.1
20260504205503 57 231 12.0 20.0 0.00 0.00 0.00 34 1013.3
20260504205003 58 233 13.0 20.0 0.00 0.00 0.00 34 1013.1
20260504204503 57 230 12.0 21.0 0.00 0.00 0.00 34 1013.4
20260504204003 57 240 12.0 21.0 0.00 0.00 0.00 35 1013.5
20260504203503 57 236 14.0 22.0 0.00 0.00 0.00 37 1013.6
20260504203003 57 238 12.0 22.0 0.00 0.00 0.00 36 1013.5
20260504202503 57 250 11.0 19.0 0.00 0.00 0.00 38 1013.4
20260504202003 57 241 13.0 20.0 0.00 0.00 0.00 37 1013.6
20260504201503 56 242 13.0 20.0 0.00 0.00 0.00 37 1013.8
20260504201003 57 257 12.0 18.0 0.00 0.00 0.00 38 1013.9
20260504200503 56 257 11.0 18.0 0.00 0.00 0.00 37 1013.8
20260504200218 56 255 11.0 18.0 0.00 0.00 0.00 37 1013.8
20260504195503 56 238 13.0 19.0 0.00 0.00 0.00 37 1014.0
20260504195003 56 240 13.0 19.0 0.00 0.00 0.00 38 1014.0
20260504194503 56 259 12.0 18.0 0.00 0.00 0.00 39 1014.0
20260504194003 56 263 11.0 18.0 0.00 0.00 0.00 38 1013.9
20260504193503 56 261 11.0 18.0 0.00 0.00 0.00 39 1013.9
20260504193218 56 262 11.0 18.0 0.00 0.00 0.00 39 1013.9
20260504192717 56 256 11.0 18.0 0.00 0.00 0.00 40 1014.0
20260504192003 56 255 11.0 18.0 0.00 0.00 0.00 40 1013.9
20260504191503 56 261 11.0 18.0 0.00 0.00 0.00 39 1013.9
20260504191003 56 242 12.0 19.0 0.00 0.00 0.00 40 1014.1
20260504190717 56 234 12.0 19.0 0.00 0.00 0.00 40 1014.1
20260504190218 56 232 13.0 20.0 0.00 0.00 0.00 40 1014.2
20260504185717 55 225 12.0 20.0 0.00 0.00 0.00 40 1014.1
20260504185003 55 224 12.0 19.0 0.00 0.00 0.00 41 1014.2
20260504184503 56 237 11.0 19.0 0.00 0.00 0.00 40 1014.2
20260504184003 55 241 12.0 19.0 0.00 0.00 0.00 41 1014.3
20260504183717 55 237 13.0 19.0 0.00 0.00 0.00 41 1014.4
20260504183003 55 244 12.0 18.0 0.00 0.00 0.00 42 1014.5
20260504182717 55 249 11.0 18.0 0.00 0.00 0.00 41 1014.5
20260504182003 55 253 12.0 18.0 0.00 0.00 0.00 43 1014.6
20260504181503 55 240 13.0 18.0 0.00 0.00 0.00 41 1014.8
20260504181003 54 238 11.0 18.0 0.00 0.00 0.00 42 1014.7
20260504180503 55 251 10.0 17.0 0.00 0.00 0.00 41 1014.7
20260504180003 54 250 10.0 17.0 0.00 0.00 0.00 43 1014.8
20260504175503 54 228 9.0 17.0 0.00 0.00 0.00 43 1014.8
20260504175003 53 211 9.0 16.0 0.00 0.00 0.00 46 1014.8
20260504174503 54 222 9.0 17.0 0.00 0.00 0.00 45 1014.8
20260504174003 53 242 9.0 17.0 0.00 0.00 0.00 49 1014.9
20260504173503 53 246 9.0 17.0 0.00 0.00 0.00 50 1014.8
20260504173003 52 244 9.0 17.0 0.00 0.00 0.00 49 1015.0
20260504172503 52 236 10.0 15.0 0.00 0.00 0.00 51 1015.1
20260504172003 52 228 10.0 15.0 0.00 0.00 0.00 50 1015.0
20260504171503 53 236 8.0 14.0 0.00 0.00 0.00 50 1015.0
20260504171003 53 241 7.0 14.0 0.00 0.00 0.00 50 1015.0
20260504170718 53 243 7.0 14.0 0.00 0.00 0.00 51 1015.0
20260504151003 50 45 5.0 9.0 0.00 0.00 0.00 61 1015.1
20260504150503 50 45 6.0 10.0 0.00 0.00 0.00 62 1015.1
20260504141003 47 59 7.0 10.0 0.00 0.00 0.00 67 1015.3
20260504140717 47 56 7.0 10.0 0.00 0.00 0.00 68 1015.3
20260504130717 44 47 6.0 10.0 0.00 0.00 0.00 73 1014.6
20260504110503 43 46 7.0 10.0 0.00 0.00 0.00 74 1014.4
20260504082003 47 62 12.0 15.0 0.00 0.00 0.00 65 1014.2
20260504081503 47 65 12.0 16.0 0.00 0.00 0.00 64 1014.2
20260504081003 47 66 9.0 16.0 0.00 0.00 0.00 64 1014.3
20260504080717 47 70 8.0 14.0 0.00 0.00 0.00 64 1014.4
20260504050503 51 355 10.0 14.0 0.00 0.00 0.00 49 1015.9
20260504050003 52 346 9.0 14.0 0.00 0.00 0.00 47 1016.1
20260504045503 53 322 8.0 14.0 0.00 0.00 0.00 44 1016.1
20260504045003 53 293 12.0 26.0 0.00 0.00 0.00 43 1016.1
20260504044717 54 294 13.0 26.0 0.00 0.00 0.00 44 1016.1
20260504044003 55 287 9.0 20.0 0.00 0.00 0.00 39 1016.3
20260504043503 54 248 6.0 11.0 0.00 0.00 0.00 34 1016.3
20260504043003 54 226 4.0 8.0 0.00 0.00 0.00 35 1016.1
20260504042503 54 239 2.0 6.0 0.00 0.00 0.00 35 1016.0
20260504042003 54 251 3.0 4.0 0.00 0.00 0.00 35 1015.9
20260504041717 54 251 3.0 4.0 0.00 0.00 0.00 34 1015.8
20260504041003 55 211 5.0 9.0 0.00 0.00 0.00 34 1015.8
20260504040503 55 188 5.0 9.0 0.00 0.00 0.00 33 1015.6
20260504040003 55 242 4.0 8.0 0.00 0.00 0.00 33 1015.7
20260504035503 55 333 3.0 6.0 0.00 0.00 0.00 34 1015.5
20260504035003 55 349 4.0 6.0 0.00 0.00 0.00 34 1015.3
20260504034503 55 348 5.0 8.0 0.00 0.00 0.00 34 1015.2
20260504034003 55 347 5.0 8.0 0.00 0.00 0.00 33 1015.1
20260504033504 56 346 5.0 8.0 0.00 0.00 0.00 33 1015.1
20260504033003 56 343 6.0 9.0 0.00 0.00 0.00 32 1015.0
20260504032503 56 333 6.0 12.0 0.00 0.00 0.00 32 1015.0
20260504032003 57 317 5.0 12.0 0.00 0.00 0.00 31 1014.8
20260504031503 57 308 4.0 8.0 0.00 0.00 0.00 30 1014.8
20260504031003 57 319 5.0 10.0 0.00 0.00 0.00 29 1014.8
20260504030503 58 319 6.0 10.0 0.00 0.00 0.00 29 1014.8
20260504030003 59 319 7.0 10.0 0.00 0.00 0.00 28 1014.7
20260504025503 59 301 9.0 18.0 0.00 0.00 0.00 28 1014.6
20260504025003 59 273 12.0 29.0 0.00 0.00 0.00 27 1014.5
20260504024503 58 263 9.0 29.0 0.00 0.00 0.00 28 1014.8
20260504024218 57 250 8.0 29.0 0.00 0.00 0.00 29 1014.9
20260504023503 56 262 3.0 6.0 0.00 0.00 0.00 29 1014.5
20260504023003 56 262 3.0 4.0 0.00 0.00 0.00 29 1014.5